Zurück zum Katalog

STARLINK-31929

AktivKommunikationVLEO
NORAD 59836·PAYLOAD·🇺🇸 United States

Gestartet May 23, 2024 von Cape Canaveral Space Force Station

Loading…

Nächste Überflüge (nächste 24 Stunden)

TLE

AktuellSource: CelesTrak SupGP

Epoche: Sep 14, 2026, 22:46 UTC

1 59836C 24097B   26257.94909722  .00024105  00000+0  87313-3 0  2570
2 59836  43.0005 285.8290 0001307 272.3924 245.2539 15.27564546    15

Verfolge STARLINK-31929 in Echtzeit mit AllMySat

Download on the App Store